COSMOS 1722

Satellite information

Favourite Embed

Satellite Type and Status

PAYLOADIN ORBIT

Key statistics

Satellite COSMOS 1722 at a glance.

Uptime

14589

Days in orbit

Revolutions

≈ 12.5

Per day

Orbit

LEO

Low Earth Orbit

Inclination

74.0

Latest

Satellite identification and parameters

Extended collection of information and parameters for COSMOS 1722.

Object identification

Identified? True

Debris? False

Object name: COSMOS 1722

International designator: 1986-002G

Object number (NORAD): 16455

Object ID (CCSDS): 16455

Country: COMMONWEALTH OF INDEPENDENT STATES (CIS)

Current information (Y/N): Y

RCS size: MEDIUM

Orbital parameters

Period: 114.829 minutes

Inclination: 73.9901 deg

SMA: 7825.785 km

Apoapsis: 1482.909 km

Periapsis: 1412.391 km

RAAN: 20.4626 deg

Eccentricy: 0.00450546

Argument of periapsis: 50.8417 deg

Mean anomaly: 117.9263 deg

Mean motion: 12.54038637 rev/day

Mean motion (dot): 0.0000001 rev/day2

B* drag term: 0.00016162242 1/REarth

Two-line elements (TLE)

Creation date: Dec. 18, 2025, 8:02 p.m.

Reference frame: TEME

Reference center: EARTH

Epoch: Dec. 18, 2025, 1:53 p.m. UTC

TLE line 0: 0 COSMOS 1722

TLE line 1: 1 16455U 86002G 25352.57881235 .00000010 00000-0 16162-3 0 9993

TLE line 2: 2 16455 73.9901 20.4626 0045055 50.8417 117.9263 12.54038637828417

Live tracking on map

Real-time ground track for satellite COSMOS 1722.

In-orbit conjunctions

A list of the most updated potential collisions computed for object COSMOS 1722.

Target Orbit TCA Probability of collision Miss distance Type
THORAD DELTA 1 DEB SSO 2025-06-14 09:18:20 0.003449735 42.0 (m) DEBRIS

Associated space launch

Military communications satellites

COSMOS 1722 was lifted into orbit during the mission ‘Kosmos-3M | Strela-1M 297-304’, on board a Kosmos-3M space rocket.

The launch took place on Jan. 9, 1986, 2:48 a.m. from 132/2.

For more information about the launch, click the button.

Launch to space Kosmos-3M | Strela-1M 297-304
Kosmos-3M | Strela-1M 297-304

Agency: N/A

Status: Launch Successful

Launch date: Jan. 9, 1986, 2:48 a.m. UTC

Rocket: Kosmos-3M

Launch pad: 132/2

Location: Plesetsk Cosmodrome, Russian Federation

...

Latest news about this satellite

There are no fresh news available about this satellite. Check back as we update our databases every day.


Newsletter sign-up

Weekly statistics, charts and insights to help you stay on top of the space industry.